Location: Unspecified
(0.0000°N, 0.0000°E)
Time: 17:52:29
(UTC+00:00)

STARLINK 1055 - Pass Details

Date: 21 January 2020
Orbit: 548 x 551 km, 53.0° (Epoch: 17 January)

Event Time Altitude Azimuth Distance (km) Brightness Sun altitude
Rises 04:41:00 0° 199° (SSW) 2,712 7.2 -21.1°
Reaches altitude 10° 04:43:23 10° 190° (S) 1,817 6.4 -20.5°
Maximum altitude 04:47:09 34° 124° (SE) 908 5.3 -19.7°
Drops below altitude 10° 04:50:54 10° 58° (ENE) 1,809 6.7 -18.8°
Sets 04:53:15 0° 49° (NE) 2,699 7.5 -18.2°
